Burlington, WI

3:33 AM CST on November 18, 2019 (GMT -0600)
Burlington

Weather History for KBUU - October, 2019

Change the Weather History Date:

Saturday, October 12, 2019

  Actual Average (KENW) Record (KENW)
Temperature  
Mean Temperature 42 °F -  
Max Temperature 52 °F 60 °F 82 °F (2008)
Min Temperature 32 °F 42 °F 28 °F (2006)
Degree Days  
Heating Degree Days 24    
Moisture  
Dew Point 28 °F    
Average Humidity 64    
Maximum Humidity 86    
Minimum Humidity 41    
Precipitation  
Precipitation 0.00 in - - ()
Sea Level Pressure  
Sea Level Pressure 29.88 in    
Wind  
Wind Speed 12 mph (SW)    
Max Wind Speed 24 mph    
Max Gust Speed 34 mph    
Visibility 10 miles    
Events      
Averages and records for this station are not official NWS values.
T = Trace of Precipitation, MM = Missing Value Source: NWS Daily Summary

Daily Weather History Graph

Daily Weather History Graph

Search for Another Location

Airport or City:

Astronomy

Oct. 12, 2019 Rise Set
Actual Time 7:02 AM CDT 6:16 PM CDT
Civil Twilight 6:34 AM CDT 6:44 PM CDT
Nautical Twilight 6:01 AM CDT 7:17 PM CDT
Astronomical Twilight 5:28 AM CDT 7:49 PM CDT
Moon 6:14 PM CDT (10/12) 5:36 AM CDT (10/12)
Length of Visible Light 12h 10m
Length of Day
11h 13m
Waxing Gibbous, 99% of the Moon is Illuminated
Oct 12
Waxing Gibbous
Oct 13
Full
Oct 21
Last Quarter
Oct 27
New
Nov 4
First Quarter

Hourly Weather History & Observations

Time (CDT) Temp. Windchill Dew Point Humidity Pressure Visibility Wind Dir Wind Speed Gust Speed Precip Events Conditions
12:15 AM 36.5 °F 30.3 °F 26.6 °F 67% 29.98 in 10.0 mi WSW 8.1 mph 21.9 mph N/A   Overcast
12:35 AM 36.5 °F 28.7 °F 26.4 °F 67% 29.98 in 10.0 mi WSW 11.5 mph 18.4 mph N/A   Overcast
12:55 AM 36.5 °F 29.7 °F 27.1 °F 69% 29.97 in 10.0 mi WSW 9.2 mph - N/A   Overcast
1:15 AM 36.5 °F 29.2 °F 27.0 °F 68% 29.97 in 10.0 mi West 10.4 mph 17.3 mph N/A   Overcast
1:35 AM 36.0 °F 29.0 °F 24.6 °F 63% 29.97 in 10.0 mi SW 9.2 mph 18.4 mph N/A   Mostly Cloudy
1:55 AM 36.1 °F 30.6 °F 25.2 °F 64% 29.96 in 10.0 mi WSW 6.9 mph 16.1 mph N/A   Overcast
2:15 AM 36.1 °F 30.6 °F 24.8 °F 63% 29.96 in 10.0 mi WSW 6.9 mph 18.4 mph N/A   Overcast
2:35 AM 36.1 °F 27.7 °F 25.5 °F 65% 29.96 in 10.0 mi West 12.7 mph 19.6 mph N/A   Overcast
2:55 AM 36.1 °F 28.7 °F 25.3 °F 65% 29.95 in 10.0 mi WSW 10.4 mph 17.3 mph N/A   Overcast
3:15 AM 36.1 °F 28.7 °F 25.5 °F 65% 29.96 in 10.0 mi West 10.4 mph 19.6 mph N/A   Overcast
3:35 AM 36.1 °F 27.3 °F 25.7 °F 66% 29.95 in 10.0 mi West 13.8 mph 23.0 mph N/A   Overcast
3:55 AM 36.0 °F 27.5 °F 25.3 °F 65% 29.95 in 10.0 mi SW 12.7 mph 23.0 mph N/A   Overcast
4:15 AM 35.8 °F 30.9 °F 25.3 °F 66% 29.94 in 10.0 mi WSW 5.8 mph 18.4 mph N/A   Overcast
4:35 AM 35.6 °F 28.6 °F 25.7 °F 67% 29.95 in 10.0 mi WSW 9.2 mph - N/A   Mostly Cloudy
4:55 AM 34.7 °F 26.4 °F 25.5 °F 69% 29.95 in 10.0 mi SW 11.5 mph - N/A   Scattered Clouds
5:15 AM 34.3 °F 27.0 °F 25.3 °F 70% 29.95 in 10.0 mi SW 9.2 mph - N/A   Clear
5:35 AM 33.8 °F 24.8 °F 25.7 °F 72% 29.95 in 10.0 mi SW 12.7 mph 17.3 mph N/A   Clear
5:55 AM 33.3 °F 24.6 °F 26.1 °F 75% 29.95 in 10.0 mi SW 11.5 mph 16.1 mph N/A   Clear
6:15 AM 32.9 °F 24.1 °F 25.7 °F 75% 29.95 in 10.0 mi SW 11.5 mph 17.3 mph N/A   Clear
6:35 AM 32.9 °F 24.1 °F 25.3 °F 74% 29.95 in 10.0 mi SW 11.5 mph - N/A   Clear
6:55 AM 32.7 °F 23.4 °F 25.2 °F 74% 29.95 in 10.0 mi SW 12.7 mph 17.3 mph N/A   Clear
7:15 AM 32.0 °F 22.1 °F 25.5 °F 77% 29.94 in 10.0 mi SW 13.8 mph 19.6 mph N/A   Clear
7:35 AM 32.2 °F 24.4 °F 26.2 °F 79% 29.95 in 10.0 mi SSW 9.2 mph 19.6 mph N/A   Clear
7:55 AM 32.0 °F 22.1 °F 26.6 °F 80% 29.95 in 10.0 mi SSW 13.8 mph 17.3 mph N/A   Clear
8:15 AM 33.3 °F 25.1 °F 27.3 °F 79% 29.94 in 10.0 mi SW 10.4 mph - N/A   Clear
8:35 AM 34.7 °F 24.7 °F 26.6 °F 72% 29.94 in 10.0 mi SW 16.1 mph 23.0 mph N/A   Clear
8:55 AM 34.7 °F 25.5 °F 25.0 °F 68% 29.94 in 10.0 mi SW 13.8 mph 29.9 mph N/A   Clear
9:15 AM 35.6 °F 24.5 °F 25.2 °F 66% 29.94 in 10.0 mi SW 20.7 mph 34.5 mph N/A   Clear
9:35 AM 36.3 °F 26.1 °F 24.8 °F 63% 29.93 in 10.0 mi SW 18.4 mph 27.6 mph N/A   Clear
9:55 AM 36.9 °F 25.4 °F 25.3 °F 63% 29.93 in 10.0 mi SW 24.2 mph 28.8 mph N/A   Clear
10:15 AM 37.2 °F 27.9 °F 26.1 °F 64% 29.93 in 10.0 mi SW 16.1 mph 28.8 mph N/A   Scattered Clouds
10:35 AM 38.5 °F 28.3 °F 26.1 °F 61% 29.93 in 10.0 mi SW 20.7 mph 26.5 mph N/A   Clear
10:55 AM 39.0 °F 29.6 °F 24.4 °F 56% 29.92 in 10.0 mi SW 18.4 mph 27.6 mph N/A   Clear
11:15 AM 39.6 °F 31.0 °F 25.5 °F 57% 29.92 in 10.0 mi SW 16.1 mph 27.6 mph N/A   Clear
11:35 AM 41.0 °F 31.6 °F 26.4 °F 56% 29.92 in 10.0 mi SW 20.7 mph 27.6 mph N/A   Clear
11:55 AM 41.2 °F 31.9 °F 25.7 °F 54% 29.92 in 10.0 mi SW 20.7 mph 31.1 mph N/A   Clear
12:15 PM 42.1 °F 33.1 °F 25.5 °F 52% 29.90 in 10.0 mi SW 20.7 mph 32.2 mph N/A   Clear
12:35 PM 43.2 °F 35.0 °F 26.2 °F 51% 29.89 in 10.0 mi SW 18.4 mph 26.5 mph N/A   Clear
12:55 PM 44.4 °F 36.9 °F 27.1 °F 51% 29.88 in 10.0 mi SSW 17.3 mph 25.3 mph N/A   Clear
1:15 PM 46.2 °F 39.3 °F 27.1 °F 47% 29.85 in 10.0 mi SW 17.3 mph 28.8 mph N/A   Clear
1:35 PM 44.8 °F 37.4 °F 26.2 °F 48% 29.83 in 10.0 mi SW 17.3 mph 29.9 mph N/A   Clear
1:55 PM 46.0 °F 39.0 °F 27.7 °F 49% 29.82 in 10.0 mi SSW 17.3 mph 27.6 mph N/A   Clear
2:15 PM 48.4 °F - 28.6 °F 46% 29.81 in 10.0 mi SSW 20.7 mph 31.1 mph N/A   Clear
2:35 PM 47.5 °F - 27.7 °F 46% 29.80 in 10.0 mi SW 19.6 mph 33.4 mph N/A   Clear
2:55 PM 48.2 °F - 28.4 °F 46% 29.79 in 10.0 mi SW 18.4 mph 26.5 mph N/A   Clear
3:15 PM 49.6 °F - 29.8 °F 47% 29.78 in 10.0 mi SSW 15.0 mph 28.8 mph N/A   Clear
3:35 PM 51.8 °F - 29.5 °F 42% 29.77 in 10.0 mi SSW 17.3 mph 29.9 mph N/A   Clear
3:55 PM 51.4 °F - 29.3 °F 43% 29.77 in 10.0 mi SW 20.7 mph 32.2 mph N/A   Clear
4:15 PM 50.9 °F - 28.6 °F 42% 29.76 in 10.0 mi SSW 24.2 mph 27.6 mph N/A   Scattered Clouds
4:35 PM 51.3 °F - 29.1 °F 43% 29.76 in 10.0 mi SSW 16.1 mph 33.4 mph N/A   Scattered Clouds
4:55 PM 51.4 °F - 28.8 °F 42% 29.76 in 10.0 mi SW 21.9 mph 27.6 mph N/A   Scattered Clouds
5:15 PM 51.1 °F - 28.2 °F 41% 29.76 in 10.0 mi SSW 21.9 mph 31.1 mph N/A   Mostly Cloudy
5:35 PM 51.1 °F - 28.6 °F 42% 29.76 in 10.0 mi SW 16.1 mph 28.8 mph N/A   Overcast
5:55 PM 50.9 °F - 29.1 °F 43% 29.76 in 10.0 mi SW 17.3 mph 26.5 mph N/A   Overcast
6:15 PM 50.9 °F - 29.7 °F 44% 29.77 in 10.0 mi SW 13.8 mph 24.2 mph N/A   Overcast
6:35 PM 50.9 °F - 30.2 °F 45% 29.76 in 10.0 mi SW 11.5 mph 21.9 mph N/A   Mostly Cloudy
6:55 PM 50.4 °F - 30.4 °F 46% 29.77 in 10.0 mi SW 9.2 mph 18.4 mph N/A   Mostly Cloudy
7:15 PM 43.0 °F 33.8 °F 32.2 °F 66% 29.80 in 10.0 mi NW 23.0 mph 27.6 mph N/A   Mostly Cloudy
7:35 PM 40.3 °F 33.4 °F 33.3 °F 76% 29.82 in 10.0 mi NNW 11.5 mph 20.7 mph N/A   Scattered Clouds
7:55 PM 39.2 °F 35.0 °F 33.3 °F 79% 29.83 in 10.0 mi NW 5.8 mph - N/A   Scattered Clouds
8:15 PM 39.2 °F 33.6 °F 33.6 °F 80% 29.82 in 10.0 mi NW 8.1 mph - N/A   Mostly Cloudy
8:35 PM 38.8 °F 35.4 °F 33.4 °F 81% 29.82 in 10.0 mi WNW 4.6 mph - N/A   Mostly Cloudy
8:55 PM 38.5 °F - 33.3 °F 81% 29.82 in 10.0 mi Calm Calm - N/A   Mostly Cloudy
9:15 PM 38.5 °F 35.0 °F 32.9 °F 80% 29.82 in 10.0 mi WNW 4.6 mph - N/A   Mostly Cloudy
9:35 PM 38.3 °F 35.9 °F 32.5 °F 80% 29.82 in 10.0 mi West 3.5 mph - N/A   Scattered Clouds
9:55 PM 38.1 °F 34.6 °F 32.2 °F 79% 29.82 in 10.0 mi West 4.6 mph - N/A   Clear
10:15 PM 37.9 °F 34.4 °F 32.4 °F 80% 29.82 in 10.0 mi West 4.6 mph - N/A   Clear
10:35 PM 37.9 °F - 32.7 °F 81% 29.82 in 10.0 mi Calm Calm - N/A   Clear
10:55 PM 37.8 °F - 33.1 °F 83% 29.82 in 10.0 mi Calm Calm - N/A   Clear
11:15 PM 37.9 °F 35.5 °F 32.9 °F 82% 29.82 in 10.0 mi SW 3.5 mph - N/A   Clear
11:35 PM 37.8 °F 34.2 °F 33.1 °F 83% 29.82 in 10.0 mi SW 4.6 mph - N/A   Clear
11:55 PM 37.2 °F 34.7 °F 33.3 °F 86% 29.81 in 10.0 mi SSW 3.5 mph - N/A   Clear